Location: Feydey
(46.3431°N, 7.0106°E)
Time: 09:33:12
(UTC+00:00)

Cosmos 2233 Rocket - Pass Details

Date: 20 June 2021
Orbit: 954 x 990 km, 82.9° (Epoch: 04 August)

Event Time Altitude Azimuth Distance (km) Brightness Sun altitude
Rises 21:32:44 0° 350° (N) 3,645 8.4 -15.0°
Reaches altitude 10° 21:35:14 10° 351° (N) 2,697 7.5 -15.2°
Maximum altitude 21:41:25 86° 264° (W) 969 4.0 -15.7°
Enters shadow 21:45:39 22° 176° (S) 1,986 5.1 -16.1°
